Flag for U.S.A. Weather past 2 weeks in Gainesville, Florida, U.S.A.

Now
74 °F

Clear.


Feels Like: 70 °F
Forecast: 72 / 82 °F
Wind: No wind

Location: Gainesville Regional Airport

Current Time: Aug 29, 2015 at 10:37:07 PM

Latest Report: Aug 29, 2015 at 9:53 PM


Visibility: 10 mi

Pressure: 30.06 "Hg

Humidity: 97%

Dew point: 73 °F

Location of GainesvilleLocation

Historic Weather in Gainesville — Graph

°F

Gainesville temperature yesterday

Maximum temperature yesterday: 90 °F (at 3:53 PM)
Minimum temperature yesterday: 72 °F (at 7:01 AM)
Average temperature yesterday: 79 °F

Past Weeks' High & Low Weather Summary

 TemperatureHumidityPressure
High93 °F (Aug 21, 1:53 PM)97% (Aug 15, 3:53 AM)30.14 "Hg (Aug 15, 3:53 AM)
Low69 °F (Aug 15, 4:53 AM)46% (Aug 25, 1:53 PM)29.85 "Hg (Aug 25, 5:53 PM)
Average80 °F82%30.00 "Hg
* Reported Aug 14 8:53 PM — Aug 29 8:53 PM, Gainesville, Weather by CustomWeather, © 2015

Note: Actual official high and low records may vary slightly from our data, if they occured in-between our weather recording intervals... More about our weather records

Advertising

Gainesville weather history for previous 24 hours

 ConditionsComfort  
Time TempWeatherWind HumidityBarometerVisibility
8:53 PM
Sat, Aug 29
75 °FSunny.5 mph94%30.03 "Hg10 mi
7:53 PM75 °FLight rain. Sunny.6 mph94%30.04 "Hg7 mi
6:59 PM76 °FThundershowers. Fog.No wind94%30.07 "Hg5 mi
5:53 PM79 °FThundershowers. Sunny.3 mph79%30.05 "Hg10 mi
4:53 PM81 °FBroken clouds.9 mph77%30.03 "Hg10 mi
3:53 PM86 °FSunny.5 mph65%30.04 "Hg10 mi
2:53 PM86 °FPassing clouds.No wind65%30.06 "Hg10 mi
1:53 PM85 °FPassing clouds.7 mph68%30.09 "Hg10 mi
12:53 PM85 °FPassing clouds.6 mph65%30.10 "Hg10 mi
11:53 AM84 °FScattered clouds.6 mph72%30.10 "Hg10 mi
10:53 AM83 °FScattered clouds.6 mph77%30.10 "Hg10 mi
9:53 AM81 °FSunny.5 mph79%30.09 "Hg10 mi
8:53 AM77 °FSunny.5 mph88%30.09 "Hg10 mi
7:53 AM74 °FClear.3 mph94%30.09 "Hg10 mi
6:53 AM73 °FClear.No wind94%30.07 "Hg10 mi
5:53 AM72 °FPassing clouds.No wind97%30.06 "Hg10 mi
5:01 AM72 °FPassing clouds.3 mph93%30.07 "Hg10 mi
3:53 AM72 °FClear.3 mph97%30.06 "Hg10 mi
2:53 AM73 °FClear.3 mph94%30.05 "Hg10 mi
1:53 AM73 °FClear.No wind94%30.06 "Hg10 mi
12:53 AM73 °FPassing clouds.3 mph94%30.09 "Hg10 mi
11:53 PM
Fri, Aug 28
74 °FClear.No wind91%30.10 "Hg10 mi
10:53 PM75 °FClear.3 mph88%30.08 "Hg10 mi
Weather by CustomWeather, © 2015

See weather overviewHow to use our weather pages